Wetbulb
58.75 59.09 58.99 59.12 59.50 60.81 61.49 61.67 61.81 61.62 61.13 61.09 61.08 61.47 61.58 61.51 60.88 54.72 51.21 56.36 57.85 62.80 61.39 54.22 53.86 53.90 55.39 53.47 53.27 51.77 47.91 45.51 45.65 44.62 46.63 47.44 47.19 47.29 46.71 47.25 46.94 48.41 47.63 47.03 49.45
57.82 58.06 59.09 59.45 59.55 59.87 60.64 61.10 61.24 61.32 60.97 60.73 60.63 61.14 61.27 60.59 55.91 52.31 58.32 61.05 63.66 63.26 53.60 53.04 52.13 53.38 52.86 51.84 52.31 50.87 47.59 45.95 48.44 47.87 47.30 47.63 47.72 48.21 46.76 46.56 46.41 46.61 47.16 45.91 46.38
57.38 57.54 58.79 59.04 59.27 59.59 59.86 60.50 60.97 60.94 60.79 60.31 60.48 60.64 60.37 59.51 53.40 52.96 60.56 62.75 62.84 61.22 54.24 53.20 53.13 53.01 50.80 51.43 50.10 48.71 47.27 47.54 47.95 48.35 47.74 47.36 46.54 48.36 47.21 46.34 49.27 48.95 49.72 45.66 45.00
57.12 57.06 57.64 58.46 58.93 59.40 59.58 59.84 60.57 60.79 60.64 60.07 60.34 60.20 59.41 55.94 46.68 53.49 61.54 61.47 60.11 56.83 53.43 51.67 51.46 50.52 49.73 48.55 49.10 47.10 47.20 47.54 48.15 48.19 46.75 46.40 47.35 46.21 47.48 50.07 50.02 50.83 50.34 46.74 45.26
56.85 56.56 56.61 57.74 58.39 59.01 59.32 59.42 60.07 60.39 60.11 59.97 60.35 59.84 57.12 51.56 51.65 54.45 59.27 57.62 54.33 52.92 51.53 51.34 50.85 50.15 49.11 48.18 47.56 47.09 47.55 47.45 48.05 47.25 47.15 46.04 46.67 47.12 46.92 50.01 49.96 47.47 46.73 46.52 46.10
56.55 56.26 56.16 56.73 57.97 58.49 58.93 59.14 59.80 59.87 59.63 59.78 60.32 59.06 54.17 47.90 54.91 55.15 52.91 52.01 51.64 52.57 50.99 51.59 51.35 50.20 48.64 48.17 47.22 47.56 46.73 47.44 47.35 47.37 46.69 45.34 46.66 45.06 49.23 48.33 48.01 46.29 46.51 47.04 46.55
56.36 55.95 55.77 55.94 57.52 58.21 58.77 59.20 59.52 59.27 59.08 59.43 59.94 56.20 52.25 51.20 55.37 54.20 52.37 51.12 51.14 51.99 50.97 50.50 51.71 50.06 49.30 46.60 46.91 45.73 45.16 46.54 46.10 45.90 45.61 45.54 44.21 44.11 49.80 44.82 46.02 45.38 46.32 46.34 46.37
56.04 55.54 55.50 55.78 56.97 57.70 58.37 58.88 58.84 58.59 58.76 59.14 59.08 55.29 50.66 53.24 55.62 53.06 52.61 51.13 51.40 51.56 51.42 51.13 51.63 49.75 47.86 47.14 46.00 45.00 44.28 43.49 45.69 44.78 44.63 44.83 43.05 49.30 49.73 45.26 46.18 47.45 46.46 45.04 45.05
55.48 55.17 55.33 56.03 56.43 57.03 57.95 58.17 58.04 57.96 59.22 58.84 55.74 53.59 49.33 55.18 51.86 53.62 52.41 50.35 50.43 50.71 51.70 50.85 51.30 48.22 47.22 46.24 45.25 44.03 42.21 42.24 42.98 45.42 43.57 43.64 44.52 47.73 45.91 44.79 45.87 47.86 47.59 45.38 44.58
55.04 54.95 54.91 55.47 56.01 56.81 57.47 57.51 56.32 56.64 55.69 53.00 52.82 50.47 50.55 49.34 52.14 52.04 50.97 51.05 49.42 50.36 50.12 50.11 49.51 47.48 45.81 45.40 39.08 41.74 41.06 42.55 41.76 43.80 42.23 42.60 42.66 46.78 48.38 44.32 45.67 47.82 48.48 47.20 44.53
55.22 54.66 54.56 54.73 55.94 57.13 55.71 52.52 49.95 48.04 49.89 49.65 49.26 49.08 48.28 51.77 52.51 50.35 50.09 49.61 49.64 48.15 44.69 47.01 45.31 43.00 45.45 46.31 45.34 43.30 41.91 42.13 45.35 42.02 41.55 42.95 42.45 44.83 47.08 46.72 45.51 46.05 47.22 47.67 45.86
55.49 54.74 54.28 54.94 55.70 56.83 50.97 48.98 48.16 46.95 44.25 47.54 45.91 45.90 48.16 51.78 47.67 49.22 49.79 47.03 46.22 43.71 45.21 44.17 41.77 46.36 45.32 44.57 42.62 42.33 41.73 42.25 44.94 40.31 39.37 41.38 40.19 43.08 44.71 45.50 46.23 46.28 47.25 47.53 46.65
55.31 55.11 54.34 54.86 55.40 51.01 48.53 47.77 51.27 50.21 45.06 45.81 46.63 46.63 47.37 49.86 47.10 47.57 47.72 46.56 45.09 42.44 43.13 42.28 44.34 42.65 42.64 42.07 40.49 41.56 41.25 42.27 40.52 39.83 38.70 36.71 38.02 39.79 43.41 43.13 44.40 45.00 46.53 47.31 45.90
55.60 55.20 54.91 55.07 51.09 50.83 48.02 49.61 50.97 49.29 38.99 39.82 41.98 46.38 47.79 48.19 44.13 46.27 47.08 46.87 43.89 42.54 42.18 43.00 44.12 41.97 41.61 41.50 42.17 39.43 42.79 41.15 39.16 37.49 36.59 37.51 34.27 41.50 43.10 42.57 42.86 45.87 47.86 44.66 43.97
55.55 55.22 54.99 54.35 50.96 48.59 47.63 50.28 50.00 45.65 30.39 40.55 41.61 47.98 46.90 44.33 43.47 43.44 46.11 45.71 42.73 41.52 42.51 41.95 39.74 39.34 39.78 41.60 42.39 41.29 38.02 37.73 36.61 36.54 33.42 37.92 33.30 39.22 36.88 38.02 41.69 44.91 47.00 46.10 45.38
55.60 55.28 54.31 52.50 51.25 50.38 49.75 49.20 46.92 36.55 28.16 37.56 42.87 41.83 42.64 42.52 41.72 42.70 43.15 45.43 44.53 42.34 41.60 42.16 41.37 41.22 42.66 37.15 38.34 37.85 37.46 36.04 33.64 34.86 30.49 37.82 36.24 37.40 38.28 39.72 42.29 44.66 46.69 44.61 43.11
55.61 55.11 53.20 52.65 49.70 49.96 49.46 47.13 35.85 30.38 36.82 36.39 39.24 40.43 40.41 39.99 40.31 40.59 39.46 39.19 39.02 36.29 37.66 40.09 39.95 39.72 39.57 38.85 37.93 37.99 38.03 34.45 33.70 32.11 31.70 34.53 31.81 36.73 40.90 42.49 43.04 44.93 46.76 43.49 43.14
55.54 54.85 53.29 52.15 53.14 50.86 46.78 41.64 29.19 35.79 36.32 40.20 39.92 38.71 38.99 40.39 40.18 39.26 37.75 37.75 39.76 38.40 36.74 36.82 36.09 37.38 40.11 41.58 41.13 37.10 39.50 35.62 28.63 29.93 32.81 30.76 28.97 37.99 42.01 43.91 44.41 40.82 43.07 40.43 40.39
55.50 53.36 51.81 52.84 50.86 48.99 42.14 33.34 33.99 36.67 38.60 36.94 38.48 37.04 37.75 38.84 39.59 38.20 38.65 38.71 41.09 40.16 37.56 35.09 36.48 35.58 35.24 36.95 37.78 35.16 34.01 38.12 34.23 29.75 27.74 36.00 40.04 40.65 39.90 39.77 39.62 39.22 39.90 40.76 40.66
52.98 50.18 50.01 52.38 50.65 47.47 37.97 34.52 36.83 39.84 38.28 39.72 36.18 39.18 36.05 38.66 36.36 37.62 37.77 40.48 39.93 40.43 43.00 39.23 35.00 36.59 31.46 35.54 33.60 35.21 36.34 32.32 33.65 28.51 27.65 34.08 35.25 36.75 39.54 38.87 40.43 40.06 40.70 43.31 41.24
52.50 45.60 50.52 51.23 50.96 44.42 33.59 35.60 38.26 39.83 40.30 38.48 37.79 36.88 37.12 37.45 38.54 36.53 38.79 39.99 41.47 40.13 40.88 40.37 39.18 34.71 33.06 32.73 34.62 31.72 32.89 32.36 31.83 31.52 29.32 27.68 33.39 41.03 39.89 40.03 39.91 41.81 42.86 44.54 42.12
49.73 41.70 48.88 50.95 40.78 40.50 34.81 38.78 39.74 38.33 39.71 39.58 38.69 38.73 37.74 37.70 36.56 37.10 37.13 39.75 43.26 40.09 36.56 40.21 37.02 34.98 36.67 32.86 33.68 34.28 35.45 36.26 32.17 30.21 30.97 31.88 32.26 36.81 41.37 41.90 41.33 41.41 42.14 42.81 42.36
46.27 45.28 47.65 49.34 37.40 36.19 39.30 38.60 39.43 38.77 38.50 37.85 37.22 38.43 39.51 36.55 32.59 37.25 38.72 42.31 41.03 40.57 38.22 37.54 34.14 30.97 33.11 29.64 29.79 32.08 32.65 34.98 37.12 35.72 31.14 29.23 31.86 41.71 42.30 42.61 40.29 40.98 43.10 42.01 42.33
46.87 38.83 41.29 43.38 44.09 40.22 38.42 38.09 36.82 40.42 40.36 38.77 35.56 37.51 34.80 33.50 36.63 34.73 36.52 39.18 40.52 40.80 41.34 41.27 35.85 34.29 30.44 34.50 35.01 31.98 32.59 33.19 33.52 30.63 31.58 32.29 34.89 39.31 41.15 41.30 42.49 43.64 42.57 41.41 42.60
47.94 41.53 40.08 33.42 36.86 39.42 40.47 39.68 38.23 35.85 38.15 39.08 35.02 36.22 35.50 32.53 34.84 34.67 37.37 38.26 36.97 39.09 38.71 38.42 31.34 33.94 35.65 37.26 36.98 35.76 35.16 34.86 30.31 32.87 30.90 34.14 35.09 38.78 40.95 41.65 42.95 43.80 43.69 43.39 43.38
42.84 42.89 40.58 39.79 39.91 37.42 37.88 37.52 37.94 40.14 39.41 35.69 35.15 38.19 36.61 33.84 34.66 36.77 36.78 36.77 35.67 33.10 35.08 35.55 31.73 33.67 30.69 35.29 35.26 32.56 35.71 35.78 35.25 35.36 35.32 34.09 32.90 40.21 41.19 42.02 41.75 42.17 42.45 41.61 41.79
45.52 45.28 42.35 40.28 38.51 36.64 35.74 36.18 37.84 40.79 41.88 42.32 40.05 38.07 36.74 37.46 40.61 41.09 41.43 39.56 38.71 36.96 34.73 32.85 31.68 30.24 26.55 32.74 32.25 26.27 32.10 33.77 34.92 36.99 36.06 31.61 36.93 41.41 40.78 41.00 41.54 42.31 42.54 41.46 41.06
MSLP
1021.78 1021.42 1021.18 1020.91 1020.55 1020.12 1019.65 1019.17 1018.78 1018.45 1018.23 1017.93 1017.68 1017.47 1017.25 1017.10 1016.93 1016.86 1016.30 1015.87 1015.88 1016.17 1016.32 1015.95 1015.80 1015.80 1015.84 1015.82 1015.96 1015.65 1014.50 1013.59 1013.61 1013.87 1013.83 1014.90 1015.09 1015.89 1016.54 1016.58 1017.16 1017.37 1017.63 1018.51 1018.97
1022.12 1021.88 1021.39 1020.98 1020.67 1020.29 1019.89 1019.43 1018.96 1018.54 1018.17 1017.88 1017.58 1017.33 1017.08 1016.93 1016.69 1016.27 1016.01 1015.94 1016.06 1016.25 1016.14 1015.66 1015.38 1015.46 1015.32 1015.56 1015.76 1015.19 1014.57 1013.83 1013.99 1014.16 1014.30 1014.80 1015.15 1015.42 1015.99 1015.99 1016.32 1016.91 1017.81 1018.86 1019.44
1022.26 1021.99 1021.60 1021.19 1020.75 1020.36 1019.97 1019.59 1019.13 1018.62 1018.17 1017.82 1017.50 1017.24 1017.01 1016.60 1016.39 1015.40 1015.64 1015.82 1015.95 1016.09 1016.14 1015.86 1015.52 1015.25 1015.00 1015.30 1015.36 1015.24 1014.55 1014.48 1014.43 1014.72 1015.00 1014.97 1015.12 1015.37 1015.28 1014.92 1014.52 1014.96 1016.14 1018.10 1018.97
1022.28 1022.06 1021.69 1021.26 1020.80 1020.35 1019.91 1019.56 1019.21 1018.73 1018.18 1017.73 1017.39 1017.13 1016.99 1016.47 1016.09 1015.30 1015.55 1015.62 1015.67 1015.71 1015.73 1015.71 1015.51 1015.19 1014.93 1014.96 1015.25 1014.99 1014.90 1014.92 1014.87 1015.15 1015.34 1015.13 1015.08 1014.90 1014.57 1013.33 1014.10 1014.56 1015.34 1016.89 1017.63
1022.28 1022.04 1021.73 1021.32 1020.82 1020.24 1019.74 1019.29 1018.93 1018.60 1018.15 1017.62 1017.22 1017.00 1016.94 1016.55 1015.48 1015.36 1015.53 1015.61 1015.62 1015.69 1015.46 1015.30 1015.09 1015.05 1014.80 1014.92 1015.24 1014.94 1014.74 1014.99 1015.04 1015.35 1015.30 1015.35 1014.76 1014.53 1013.62 1013.37 1014.08 1014.93 1015.57 1016.03 1016.57
1022.24 1022.03 1021.71 1021.33 1020.81 1020.21 1019.58 1019.04 1018.60 1018.20 1017.83 1017.46 1017.13 1016.96 1016.70 1016.32 1015.38 1015.42 1015.51 1015.64 1015.62 1015.44 1015.53 1015.39 1015.02 1015.14 1015.04 1015.14 1015.20 1014.86 1014.91 1014.77 1014.92 1015.09 1015.19 1015.05 1014.45 1014.73 1012.41 1012.95 1013.53 1014.42 1014.76 1015.21 1015.55
1022.11 1021.94 1021.70 1021.31 1020.85 1020.24 1019.52 1018.82 1018.24 1017.78 1017.36 1017.20 1017.01 1016.75 1016.43 1015.46 1015.23 1015.39 1015.46 1015.81 1015.94 1015.71 1015.53 1015.78 1015.68 1015.53 1015.52 1015.49 1015.66 1015.37 1014.90 1014.44 1014.41 1014.81 1014.98 1015.10 1014.26 1012.96 1011.66 1013.12 1013.16 1013.54 1013.97 1014.57 1014.90
1021.85 1021.76 1021.48 1021.08 1020.58 1020.14 1019.31 1018.42 1017.82 1017.26 1016.88 1016.85 1016.90 1016.61 1015.78 1015.41 1015.31 1015.46 1015.55 1015.84 1016.07 1015.97 1015.95 1016.07 1015.90 1015.84 1015.81 1016.05 1015.51 1015.04 1014.77 1013.76 1013.72 1014.51 1014.89 1015.05 1012.06 1011.05 1011.40 1012.37 1012.18 1012.38 1012.82 1013.46 1013.99
1021.71 1021.50 1021.26 1020.98 1020.36 1019.80 1018.99 1017.91 1017.27 1016.86 1016.83 1016.79 1016.82 1016.42 1015.58 1015.55 1015.46 1015.34 1015.49 1015.49 1015.94 1016.21 1016.27 1016.21 1015.99 1015.97 1016.03 1015.30 1014.61 1014.39 1013.20 1013.14 1013.44 1013.98 1014.47 1014.48 1011.70 1011.24 1011.63 1011.86 1011.32 1011.13 1011.59 1012.25 1012.99
1021.54 1021.32 1021.11 1020.66 1020.25 1019.48 1018.62 1017.31 1016.90 1016.86 1016.82 1016.66 1016.52 1016.76 1015.48 1015.14 1015.24 1015.35 1015.47 1015.53 1015.66 1015.97 1016.10 1015.98 1015.83 1015.51 1015.22 1014.56 1013.10 1012.70 1012.88 1012.53 1012.75 1013.64 1014.25 1013.74 1011.78 1010.57 1010.84 1011.40 1010.37 1009.61 1010.03 1010.63 1011.43
1021.27 1021.15 1020.99 1020.70 1020.20 1019.51 1018.56 1017.10 1017.26 1017.23 1016.78 1016.11 1015.70 1015.27 1015.08 1015.47 1015.53 1015.58 1015.54 1015.48 1015.50 1015.54 1015.35 1015.78 1015.42 1013.74 1013.27 1013.34 1013.03 1012.98 1012.83 1012.35 1011.95 1013.72 1013.93 1012.77 1011.89 1010.48 1010.08 1010.03 1009.00 1008.31 1008.30 1008.80 1009.84
1020.93 1021.04 1020.82 1020.43 1020.10 1019.59 1019.04 1018.68 1019.02 1019.61 1017.66 1015.91 1015.69 1015.54 1015.18 1015.15 1015.46 1015.51 1015.70 1015.52 1015.28 1014.92 1015.37 1015.69 1014.26 1012.85 1013.56 1013.73 1013.71 1013.51 1013.15 1012.17 1012.46 1013.65 1014.02 1012.60 1011.39 1010.58 1009.85 1008.51 1007.80 1007.16 1006.48 1007.48 1008.93
1020.58 1020.61 1020.70 1020.21 1019.70 1019.69 1019.48 1019.61 1019.87 1019.73 1018.57 1015.98 1015.47 1015.17 1015.25 1015.35 1015.00 1014.96 1015.31 1015.22 1014.94 1014.98 1014.77 1014.41 1012.93 1013.88 1013.93 1014.01 1014.04 1013.66 1013.17 1012.56 1013.33 1013.60 1013.63 1013.10 1010.61 1009.57 1008.30 1007.96 1006.91 1005.97 1005.84 1006.75 1007.82
1020.46 1020.25 1020.21 1020.03 1019.76 1020.17 1020.29 1020.37 1020.06 1019.90 1018.14 1015.95 1015.40 1015.08 1015.21 1015.16 1015.30 1015.33 1015.20 1015.13 1015.12 1014.74 1014.98 1014.49 1013.88 1014.00 1014.42 1013.95 1014.25 1014.02 1013.36 1013.60 1013.88 1014.36 1012.96 1013.03 1007.94 1008.01 1007.28 1006.63 1006.52 1005.06 1004.71 1005.93 1007.06
1020.33 1020.16 1019.88 1020.01 1020.46 1020.21 1020.52 1020.51 1020.43 1019.86 1017.19 1015.35 1015.11 1015.44 1015.25 1015.30 1015.57 1015.61 1015.69 1015.14 1014.72 1014.84 1015.11 1013.76 1014.24 1014.51 1014.58 1014.18 1014.27 1014.16 1014.34 1014.38 1014.40 1014.08 1013.44 1011.95 1010.32 1006.01 1006.66 1006.30 1005.42 1004.41 1004.06 1005.12 1006.26
1019.86 1020.01 1020.07 1020.05 1020.31 1020.13 1020.17 1020.33 1020.16 1019.41 1015.71 1014.63 1014.83 1015.07 1015.21 1015.15 1015.35 1015.68 1015.60 1015.48 1015.47 1015.05 1014.85 1014.11 1014.72 1014.75 1014.31 1014.96 1015.10 1015.14 1014.85 1014.67 1014.57 1013.77 1011.39 1009.45 1008.51 1005.08 1005.46 1005.09 1004.67 1003.78 1003.62 1004.78 1006.24
1019.26 1019.80 1020.03 1019.79 1019.77 1019.88 1020.05 1019.83 1019.58 1017.12 1015.12 1014.11 1014.03 1014.47 1014.58 1014.69 1014.84 1014.90 1015.02 1015.14 1014.74 1014.83 1014.14 1013.87 1014.04 1014.38 1014.71 1015.09 1015.52 1015.15 1014.83 1013.84 1012.60 1011.93 1007.89 1008.01 1007.28 1004.82 1004.88 1004.39 1004.12 1003.35 1003.76 1005.03 1006.26
1018.41 1019.25 1019.35 1019.55 1019.26 1019.73 1019.83 1019.18 1017.03 1013.84 1013.68 1013.37 1013.59 1013.89 1013.68 1013.53 1013.70 1014.12 1014.29 1014.13 1013.83 1013.69 1013.43 1013.11 1013.24 1013.91 1014.11 1013.96 1013.98 1014.56 1014.11 1013.54 1011.12 1010.30 1006.38 1007.65 1004.14 1002.91 1003.65 1003.58 1003.10 1004.19 1004.47 1005.59 1006.46
1017.37 1018.39 1018.78 1018.77 1019.28 1019.40 1019.34 1017.35 1012.86 1012.69 1012.52 1012.75 1013.39 1013.25 1012.88 1012.83 1013.11 1013.51 1013.22 1012.43 1011.85 1012.05 1012.06 1012.15 1012.03 1013.41 1014.21 1014.50 1014.84 1015.13 1014.61 1013.64 1012.31 1011.05 1008.30 1004.17 1001.99 1002.30 1002.74 1003.00 1003.44 1003.76 1004.28 1004.58 1005.49
1016.65 1016.91 1017.02 1017.74 1018.60 1018.97 1018.66 1013.92 1012.10 1011.97 1011.98 1011.89 1011.49 1011.06 1010.79 1011.26 1012.27 1012.46 1011.75 1010.88 1011.10 1010.94 1010.40 1011.04 1011.78 1012.93 1014.42 1014.77 1015.11 1014.54 1014.24 1013.96 1013.33 1011.13 1007.99 1001.14 1001.06 1000.94 1001.85 1002.05 1002.44 1003.00 1003.38 1003.45 1004.57
1015.83 1016.10 1015.34 1016.38 1017.69 1017.96 1016.15 1012.96 1011.80 1011.51 1011.59 1011.20 1010.44 1010.11 1009.94 1010.22 1010.63 1010.57 1009.58 1009.97 1010.11 1010.36 1010.98 1011.20 1011.81 1012.63 1014.33 1013.81 1012.98 1014.56 1013.86 1013.59 1013.00 1011.46 1009.03 1004.89 1000.23 999.94 1000.26 1000.76 1001.50 1001.76 1002.33 1003.10 1004.36
1015.55 1015.73 1015.44 1015.98 1017.04 1015.85 1014.49 1011.93 1012.62 1011.92 1011.58 1011.15 1010.68 1009.82 1009.52 1009.54 1009.36 1009.56 1008.74 1008.88 1009.06 1009.98 1011.04 1011.25 1011.57 1011.69 1011.67 1012.43 1012.41 1012.19 1011.77 1011.28 1010.76 1009.33 1008.20 1007.21 995.95 1000.19 999.56 999.89 1001.21 1001.88 1002.08 1002.80 1003.31
1014.71 1015.29 1015.82 1014.73 1014.39 1014.14 1013.53 1012.60 1012.38 1011.78 1011.21 1010.48 1010.06 1009.85 1009.74 1009.32 1009.31 1008.84 1008.61 1008.50 1009.32 1009.73 1009.68 1010.54 1011.64 1012.03 1010.76 1012.54 1012.68 1011.66 1010.81 1010.09 1009.16 1008.19 1004.84 1006.88 996.47 999.62 999.33 999.98 1000.60 1001.11 1001.42 1001.98 1002.16
1013.94 1014.41 1015.08 1014.63 1013.39 1012.69 1012.69 1011.86 1011.78 1010.63 1010.54 1010.25 1009.72 1009.66 1010.10 1009.29 1008.91 1008.70 1007.91 1008.56 1008.90 1008.87 1009.08 1010.25 1010.66 1010.57 1009.17 1008.37 1009.11 1010.02 1009.89 1009.23 1008.41 1006.66 1005.02 1003.24 1000.50 996.98 999.66 999.73 998.75 999.56 1000.28 1000.55 1000.70
1012.74 1011.68 1012.20 1013.18 1012.38 1012.33 1011.77 1010.82 1010.49 1010.16 1009.95 1009.93 1009.56 1009.43 1009.41 1009.10 1008.70 1008.00 1007.91 1008.45 1009.00 1009.10 1009.49 1009.47 1010.45 1010.70 1009.35 1007.69 1008.19 1007.71 1008.30 1007.41 1005.60 1005.54 1004.58 1000.37 1001.83 998.82 997.94 998.22 997.94 998.14 998.81 998.42 999.04
1012.45 1011.25 1011.71 1010.61 1010.65 1011.24 1011.22 1009.59 1008.96 1007.99 1008.65 1008.74 1008.22 1007.70 1007.71 1007.80 1008.06 1006.29 1007.36 1007.66 1007.93 1009.27 1009.83 1009.79 1008.86 1009.77 1008.88 1007.62 1007.53 1007.56 1007.35 1005.45 1004.16 1002.65 1002.76 1002.19 1001.07 998.72 998.31 997.38 998.15 996.41 997.49 997.55 997.87
1012.49 1011.55 1011.08 1009.63 1009.64 1009.74 1008.13 1007.82 1007.50 1007.45 1007.40 1006.48 1005.98 1006.71 1006.72 1005.96 1005.48 1005.11 1006.59 1007.24 1007.99 1008.59 1009.25 1009.70 1009.03 1009.06 1007.55 1007.18 1007.43 1006.71 1003.58 1004.29 1001.24 1001.62 1000.94 1000.20 998.25 998.03 997.00 996.20 996.11 994.99 996.66 996.58 996.45
Wind_Speed
18 18 18 18 19 19 19 19 18 15 12 13 11 8 7 8 5 3 5 2 3 4 2 5 3 5 3 3 1 1 4 4 3 5 3 6 8 4 1 4 5 6 3 3 16
18 18 18 18 19 18 18 18 17 16 14 12 12 9 6 6 1 7 3 4 1 1 4 7 6 8 4 3 1 4 3 3 2 3 2 4 8 6 6 8 8 8 8 5 20
17 17 19 19 19 19 18 17 16 16 15 13 11 9 6 2 3 3 4 3 1 3 1 1 4 3 4 3 3 3 3 2 4 6 4 3 5 6 7 11 13 15 13 15 21
16 17 19 19 19 19 18 17 16 16 15 13 10 7 8 2 5 3 0 2 4 6 5 3 3 3 4 5 3 4 4 4 1 4 4 4 3 6 14 18 1 9 8 19 23
14 16 18 19 20 20 20 19 16 16 15 14 9 5 1 3 8 3 0 1 5 3 2 3 3 4 4 4 4 5 5 5 4 4 6 3 11 9 14 16 10 6 10 18 20
14 15 17 18 19 21 22 21 19 16 16 13 7 4 3 7 3 2 1 2 2 3 2 1 2 2 2 3 5 3 3 6 5 7 6 7 5 3 8 4 13 12 16 17 21
14 16 17 18 19 20 21 22 20 18 16 11 4 3 3 9 2 3 3 2 2 1 3 1 3 1 3 2 1 0 6 5 11 6 5 5 11 14 18 7 10 14 14 16 19
14 16 17 18 18 20 22 23 21 19 8 2 3 3 7 1 2 3 4 4 3 4 4 3 3 5 1 3 1 4 3 5 6 8 3 6 11 14 5 10 15 16 15 16 20
14 16 18 18 19 20 22 26 20 7 0 3 3 3 6 3 3 3 2 5 4 3 5 3 2 2 4 4 6 4 12 9 5 11 5 11 16 6 2 8 15 17 16 16 17
12 14 17 18 20 21 26 22 5 2 1 2 1 3 4 4 3 4 2 6 3 5 3 2 2 5 4 8 13 15 10 9 11 5 9 11 23 22 16 13 21 24 20 19 19
9 13 16 18 19 20 15 4 3 3 1 5 2 4 1 2 1 2 2 6 4 3 8 2 7 17 16 17 16 11 10 18 17 4 5 15 22 23 21 19 24 25 23 20 20
4 11 14 15 19 22 4 2 1 3 9 5 6 7 3 2 3 5 5 9 8 11 7 5 17 19 6 8 10 11 14 23 15 3 8 15 21 22 24 26 24 24 24 19 16
5 6 13 13 16 5 3 2 2 1 5 6 4 4 2 7 6 6 12 4 6 9 13 16 10 3 8 9 10 12 19 18 12 4 8 10 16 11 9 12 15 21 22 17 16
7 4 6 15 1 4 2 4 1 1 7 6 4 2 2 2 4 2 3 2 4 9 8 11 4 9 9 12 13 14 7 13 11 6 13 2 19 12 15 15 11 21 17 13 15
11 6 1 5 5 1 1 3 3 3 11 1 3 1 2 3 4 1 1 1 7 7 7 5 4 7 10 9 12 5 1 2 2 8 7 12 13 9 2 7 17 18 19 12 12
11 8 4 3 2 1 1 1 2 5 12 3 3 4 4 2 2 1 2 2 2 4 5 8 1 5 3 3 0 6 1 3 3 5 11 20 20 3 5 8 9 16 15 9 10
12 11 6 4 1 4 2 2 4 11 4 6 6 5 3 6 6 8 8 9 8 6 10 4 9 3 3 4 3 5 2 7 9 8 16 3 8 13 15 13 16 19 15 5 8
14 12 8 4 5 5 2 4 16 6 12 3 3 4 8 11 7 9 7 8 11 4 1 5 12 13 10 11 4 10 7 7 16 15 26 7 13 10 8 15 21 6 10 2 6
15 6 4 7 8 4 4 12 12 11 8 9 3 5 8 4 4 7 13 8 11 20 14 9 11 2 1 2 1 8 8 4 8 1 12 13 19 7 9 14 7 14 9 14 12
4 5 7 12 12 5 6 24 11 9 7 5 19 15 14 13 10 11 12 7 7 16 10 4 15 4 4 3 2 5 4 4 3 9 21 23 29 19 14 16 13 12 13 14 9
5 4 6 16 8 6 13 15 12 10 9 11 14 13 13 12 14 10 12 3 8 7 11 4 9 5 5 12 15 6 6 4 3 4 11 24 10 5 4 4 10 13 10 10 8
2 4 6 13 8 5 13 10 5 8 8 13 5 14 20 15 14 13 15 14 11 10 13 9 3 11 17 2 1 1 10 14 10 10 12 11 38 8 8 6 6 3 6 5 10
4 3 3 8 9 10 9 12 9 11 12 13 16 13 14 18 11 15 19 7 11 12 12 10 3 7 16 5 0 9 8 13 16 16 32 11 37 13 11 13 8 11 13 8 15
4 4 3 6 6 17 21 18 16 11 22 10 6 10 3 10 14 12 22 9 11 13 8 11 8 15 23 15 1 8 12 18 23 19 17 28 37 42 29 30 30 25 17 17 16
5 6 10 6 15 18 16 9 21 15 13 12 8 20 22 16 17 24 24 18 8 6 5 13 14 19 28 35 22 25 24 27 30 29 26 35 26 37 35 30 30 25 21 29 24
5 3 4 6 18 25 23 19 28 28 16 14 21 22 25 26 25 24 27 23 19 2 6 4 19 25 33 33 27 26 28 32 34 36 29 28 33 34 38 36 32 38 28 28 25
3 5 6 5 11 17 24 31 30 27 23 27 25 22 21 30 34 33 21 7 6 12 15 13 9 11 23 26 20 13 36 31 40 34 32 31 36 32 36 34 31 31 22 23 25
Wind_Direction
15 13 12 7 3 359 358 356 353 353 357 350 349 342 345 343 314 183 240 105 130 141 156 135 136 141 157 109 44 254 230 236 228 193 148 157 201 151 147 191 210 205 263 62 153
10 7 5 3 0 357 353 350 346 344 345 348 342 334 341 352 250 253 105 95 52 153 205 192 161 161 144 125 138 241 253 232 197 213 232 192 220 184 202 196 220 224 202 154 160
5 2 359 358 355 353 350 345 339 336 335 338 335 327 321 293 287 222 119 80 68 182 289 340 118 194 159 177 159 162 260 194 232 234 236 232 221 195 230 230 231 219 201 179 180
2 356 355 353 350 347 344 341 334 329 326 328 326 321 314 221 252 154 130 96 134 150 158 150 172 190 172 190 171 215 225 223 242 203 193 227 150 220 226 246 266 238 199 181 189
355 352 348 346 344 341 336 335 331 323 317 317 313 309 239 226 257 133 21 85 135 155 146 189 192 183 225 180 179 223 189 213 248 218 232 256 242 256 246 247 230 217 192 194 200
347 346 344 339 336 335 331 329 326 321 313 309 295 281 179 242 98 72 147 105 98 166 144 216 209 174 151 211 230 167 244 250 247 239 236 236 246 225 244 242 230 222 220 211 209
339 340 339 337 331 330 326 322 320 315 309 300 251 229 215 260 103 86 121 78 27 262 146 77 109 238 137 215 70 311 287 258 221 211 238 209 267 232 248 191 232 226 230 224 219
332 334 333 332 329 328 323 317 317 311 297 241 200 215 253 84 141 131 134 92 76 54 90 103 107 99 343 131 199 253 246 248 146 171 168 196 276 241 219 212 242 240 228 220 220
326 330 330 330 330 327 322 314 310 308 4 151 183 230 257 136 193 135 195 151 111 80 68 94 76 85 166 232 259 220 273 237 269 206 150 210 283 232 198 232 259 252 237 227 226
321 327 327 330 327 327 323 311 285 303 145 191 104 236 171 214 149 147 108 145 138 132 140 182 150 229 197 207 263 282 256 250 259 179 218 221 257 272 265 251 259 265 255 241 227
317 324 327 327 325 326 336 338 283 201 167 224 193 269 201 80 111 199 156 141 132 179 204 112 228 236 246 234 268 278 265 268 266 196 241 254 260 275 283 274 261 268 261 250 238
295 320 325 326 322 321 296 32 86 8 301 231 244 275 238 190 217 200 174 190 184 213 149 182 239 254 271 250 231 241 258 264 280 213 216 273 271 277 271 269 267 267 264 254 246
274 310 322 320 320 328 359 97 1 268 248 283 218 231 204 183 228 196 180 164 199 200 205 232 246 87 190 212 207 232 238 259 257 307 225 285 268 242 258 260 274 263 259 256 233
263 273 327 321 207 354 360 0 340 276 259 241 216 221 123 185 239 28 210 192 198 242 194 245 284 233 222 240 200 246 239 251 267 283 275 360 289 275 272 254 257 273 268 234 222
246 238 149 40 322 222 37 327 305 240 276 57 173 77 117 205 108 83 345 162 209 179 182 217 186 199 218 240 180 249 97 193 219 252 303 250 266 266 165 254 260 259 271 230 225
225 220 188 114 175 245 260 287 243 234 242 232 151 175 156 177 148 127 138 41 25 180 235 257 184 228 216 95 185 132 165 193 179 251 251 257 235 211 191 211 244 256 262 210 195
213 205 192 163 207 133 151 192 229 233 21 192 196 181 211 185 195 184 169 180 192 183 218 192 221 165 183 165 141 190 210 289 257 235 266 115 259 266 280 241 238 251 263 173 188
203 181 202 218 156 146 193 164 234 184 208 75 126 138 201 165 216 182 168 210 230 215 175 228 257 183 179 226 220 185 213 219 275 287 288 98 250 271 239 253 253 294 265 206 204
183 187 199 195 160 138 197 217 225 200 185 180 110 207 215 232 227 178 211 216 208 188 204 192 251 124 143 91 274 149 201 347 293 128 284 246 255 225 195 240 241 252 246 250 230
196 183 207 160 163 146 202 237 224 197 155 175 224 198 228 216 196 196 190 184 229 202 210 211 278 145 110 152 91 215 119 137 213 276 273 277 294 282 238 235 236 248 244 250 218
209 207 173 151 151 179 219 229 240 213 187 191 230 246 239 234 215 215 236 208 204 190 200 169 213 200 148 201 185 163 195 204 298 243 273 290 270 157 172 164 212 231 231 253 246
193 233 155 150 191 187 224 193 215 235 218 250 250 252 246 229 236 249 245 227 178 151 168 206 181 251 240 132 204 266 229 206 224 228 232 269 271 171 166 192 244 226 257 262 246
207 196 228 186 206 214 230 241 241 232 219 209 229 223 228 244 251 248 256 210 170 170 182 168 187 255 264 203 262 219 201 233 241 256 249 223 267 229 271 258 237 255 265 243 241
213 214 171 219 245 211 218 230 232 210 241 235 224 211 211 240 216 242 241 229 194 206 150 162 185 224 244 253 9 200 225 230 223 234 251 237 258 276 273 277 282 278 271 250 244
228 199 177 190 221 235 231 214 231 235 207 217 237 227 224 241 253 250 259 247 209 202 181 162 235 244 252 257 256 266 262 250 236 235 242 257 259 267 276 275 276 283 286 278 274
277 232 201 206 208 215 227 220 229 237 210 210 221 219 220 228 214 242 234 238 227 169 214 202 236 222 239 248 254 254 253 250 257 257 253 255 264 263 269 276 278 272 272 272 276
339 353 298 184 214 218 214 220 230 238 237 233 221 226 222 226 229 233 259 275 198 227 227 227 226 237 245 245 251 236 237 246 256 260 257 260 253 264 266 262 263 272 279 273 265